Location: Newark
(48.5667°N, 7.8167°E)
Time: 13:39:54
(UTC+00:00)

ISS - Pass Details

Date: 18 May 2021
Orbit: 419 x 422 km, 51.6° (Epoch: 25 June)

Event Time Altitude Azimuth Distance (km) Brightness Sun altitude
Rises 00:44:59 0° 291° (WNW) 2,376 0.1 -19.6°
Reaches altitude 10° 00:47:06 10° 288° (WNW) 1,509 -1.0 -19.5°
Enters shadow 00:47:45 15° 286° (WNW) 1,247 -1.4 -19.4°
